Location: *
(22.9833°N, 94.0167°E)
Time: 14:09:21
(UTC+00:00)

Daily predictions for brighter satellites

Satellite Brightness Start Highest point End
(mag) Time Altitude Azimuth Time Altitude Azimuth Time Altitude Azimuth
Cosmos 972 Rocket 4.4 12:13:35 10° NNW 12:19:15 88° ENE 12:25:37 10° SSE
Cosmos 1242 Rocket 2.5 12:16:09 10° N 12:19:33 54° E 12:22:58 10° SSE
GOES 2 Rocket 3.9 12:17:07 10° WNW 12:21:05 40° N 12:25:27 10° ENE
SEDSat Delta rocket 3.1 12:17:06 10° WSW 12:22:05 89° NNW 12:26:28 10° ENE
YAOGAN 1 2.6 12:20:33 10° SSE 12:24:47 59° ENE 12:29:02 10° N
USA 229 DEB 4.1 12:17:34 10° NNW 12:24:58 61° ENE 12:32:32 10° SE
USA 229 4.1 12:17:40 10° NNW 12:25:04 60° ENE 12:32:38 10° SE
Cosmos 1455 Rocket 3.4 12:22:43 10° SSE 12:26:45 41° E 12:30:49 10° NNE
Lacrosse 4 Rocket 2.9 12:22:53 10° NW 12:27:05 43° WSW 12:31:11 10° S
Cosmos 1809 Rocket 4.4 12:22:38 10° N 12:28:44 78° E 12:34:51 10° S
Meteor 2-5 Rocket 4.3 12:24:34 10° NNE 12:29:33 33° E 12:34:28 10° SE
Cosmos 2278 Rocket 2.6 12:25:29 10° N 12:30:49 41° ENE 12:36:08 10° SE
STARLINK-1162 3.6 12:26:54 10° NW 12:31:04 89° WSW 12:35:13 10° SE
Cosmos 371 Rocket 3.8 12:28:15 10° N 12:32:44 38° ENE 12:37:13 10° SE
STARLINK-1129 3.6 12:28:41 10° NW 12:32:50 88° SW 12:36:57 10° SE
Cosmos 494 Rocket 4.5 12:30:00 10° SSW 12:35:03 65° WNW 12:40:10 10° N
STARLINK-1157 3.8 12:31:53 10° NW 12:36:01 78° SW 12:40:11 10° SSE
STARLINK-1134 3.7 12:33:41 10° NW 12:37:49 77° SW 12:41:56 10° SSE
CZ-2C R/B 4.5 12:35:24 11° ESE 12:38:24 17° ENE 12:41:33 10° NNE
GPS 2-17 Rocket1 4.4 12:34:04 10° WSW 12:38:25 33° SSW 12:42:45 10° SE
STARLINK-1159 3.9 12:36:52 10° NW 12:41:01 68° SW 12:45:07 10° SSE
Meteor 1-24 Rocket 4.4 12:37:15 10° NNE 12:41:54 29° E 12:46:28 10° SE
Cosmos 1805 4.0 12:38:35 10° SSW 12:42:26 58° W 12:46:17 10° N
STARLINK-1135 3.9 12:38:40 10° NW 12:42:46 67° SW 12:46:52 10° SSE
STARLINK-1171 4.2 12:41:53 10° NW 12:45:59 59° SW 12:50:03 10° SSE
Cosmos 1892 Rocket 4.0 12:42:10 10° NNE 12:46:23 40° E 12:50:35 10° SSE
Cosmos 1745 Rocket 4.1 12:40:29 10° N 12:46:34 53° E 12:52:33 10° SSE
STARLINK-1141 4.2 12:43:41 10° NW 12:47:44 58° SW 12:51:47 10° SSE
OAO 3 Rocket 3.4 12:45:17 10° NW 12:50:05 60° NNE 12:53:18 20° E
CSL-04 Debris 4.2 12:44:46 10° SSE 12:50:16 87° WSW 12:55:46 10° NNW
STARLINK-1155 4.4 12:46:54 10° NW 12:50:55 51° SW 12:54:57 10° SSE
Cosmos 1452 Rocket 3.7 12:47:16 10° NNW 12:52:32 79° WSW 12:57:47 10° S
STARLINK-1140 4.4 12:48:42 10° NW 12:52:42 50° SW 12:56:41 10° SSE
Cosmos 1544 Rocket 3.4 12:49:56 10° S 12:54:14 68° E 12:58:36 10° N
BREEZE M DEB (TANK) 3.3 12:53:19 10° S 12:54:01 15° SSE 12:54:01 15° SSE
Meteor 1-22 Rocket 4.3 12:50:30 10° S 12:55:53 77° W 13:01:10 10° N
USA 81 4.0 12:51:32 10° N 12:56:44 61° E 13:01:55 10° SSE
Okean 1-7 Rocket 3.8 12:53:05 10° N 12:57:18 46° E 13:01:30 10° SSE
Ariane Rocket 3.5 12:52:54 10° SE 12:57:35 38° ENE 13:02:16 10° N
Cosmos 332 Rocket 3.8 12:55:45 10° N 13:00:35 58° ENE 13:05:07 12° SSE
FALCON 9 R/B 4.1 12:53:59 10° WNW 13:01:02 75° N 13:30:41 22° E
Cosmos 1470 2.9 12:59:53 10° SSE 13:03:34 47° E 13:07:17 10° NNE
CZ-4 R/B 3.7 13:01:08 10° SSW 13:04:23 25° W 13:07:37 10° NW
SJ-11-01 4.3 12:59:52 10° SSE 13:04:24 54° ENE 13:08:59 10° N
ARGOS Delta rocket 4.1 12:59:42 10° SSE 13:04:26 52° ENE 13:09:26 10° N
Mugunghwa Rocket 4.4 12:57:05 10° WNW 13:05:10 77° SSW 13:09:56 24° ESE
Cosmos 2315 Rocket 3.9 13:00:37 10° S 13:06:48 66° E 13:13:03 10° NNE
BREEZE-M DEB (TANK) 4.4 13:03:51 10° NNW 13:07:13 15° NNE 13:08:38 12° NE
USA 186 3.0 13:10:41 28° NE 13:10:41 28° NE 13:12:58 10° NNE
SJ-6B 4.2 13:13:48 24° NE 13:13:48 24° NE 13:16:15 10° NNE
USA 234 4.5 13:08:13 10° NNE 13:14:14 41° NW 13:20:15 10° WSW
Meteor 2-15 Rocket 4.5 13:09:14 10° SSE 13:15:05 53° E 13:20:57 10° NNE
Cosmos 1758 3.2 13:11:49 10° S 13:15:51 67° E 13:19:54 10° NNE
Cosmos 1110 Rocket 4.0 13:11:41 10° N 13:16:47 57° ENE 13:19:16 29° SE
CZ-2C R/B 3.6 13:18:30 10° NNE 13:23:11 68° E 13:27:46 10° S
GPS 2-15 Rocket1 3.4 13:18:41 10° WSW 13:23:25 53° S 13:24:24 44° SE
SL-16 R/B 3.9 13:20:53 10° SW 13:25:56 33° WNW 13:31:01 10° N
Meteor 2-15 4.3 13:20:04 10° S 13:26:09 89° E 13:32:12 10° N
DELTA 2 R/B (1) 3.7 13:20:45 10° WNW 13:26:17 68° SW 13:28:35 35° SE
H-2A R/B 2.0 13:22:46 21° SSE 13:26:20 68° ENE 13:31:35 10° N
ATLAS 3B CENTAUR R/B 1.6 13:26:41 10° WNW 13:32:11 48° SSW 13:32:26 47° SSW
Delta 128 4.3 13:29:30 10° W 13:34:34 65° N 13:36:34 40° NE
SL-14 R/B 3.4 13:37:53 10° N 13:41:37 73° NW 13:41:37 73° NW
DMSP B5D2-2 3.9 13:37:13 10° NNE 13:42:25 74° ESE 13:47:37 10° S
Cosmos 1709 Rocket 3.8 13:37:51 10° N 13:44:02 89° E 13:47:53 24° S
OAO 2 Rocket 3.3 13:42:05 10° WNW 13:47:08 69° NNE 13:47:08 69° NNE
Cosmos 1603 3.5 13:41:59 10° SSW 13:47:39 83° ESE 13:53:17 10° NNE
ATLAS 5 CENTAUR R/B 2.8 13:43:32 10° WSW 13:48:32 63° SSE 13:53:25 39° E
Atlas Centaur 2 3.7 13:48:11 10° W 13:51:58 19° SW 13:53:02 18° SSW
Cosmos 2251 Rocket 3.8 13:49:06 10° SSW 13:54:23 67° WNW 13:59:42 10° N
Cosmos 1626 3.7 13:53:25 10° NNW 13:55:45 32° NW 13:55:45 32° NW
Cosmos 2297 3.8 13:57:53 10° NNW 14:02:46 65° N 14:02:46 65° N
ARGOS 3.6 14:02:36 44° SSW 14:04:04 59° W 14:09:23 10° NNW
CZ-2C R/B 3.2 14:05:38 10° N 14:09:31 49° NNW 14:09:31 49° NNW
GOES 2 Rocket 4.4 14:11:06 10° WNW 14:13:55 40° WNW 14:13:55 40° WNW
CZ-2C R/B 4.4 14:16:27 30° SW 14:17:58 35° W 14:22:33 10° NW
CZ-3A R/B 4.0 14:52:47 10° W 15:02:39 36° WSW 15:02:39 36° WSW
Cosmos 2333 Rocket 4.0 20:43:28 10° N 20:48:13 27° ENE 20:52:58 10° SE
VEP-3 3.6 20:51:26 78° S 20:51:43 79° SSE 21:20:05 10° E
Hubble Space Telescope 3.7 21:09:51 14° E 21:09:51 14° E 21:10:32 10° E
ADEOS 4.4 21:13:17 10° NNE 21:18:17 46° E 21:18:21 46° ESE
USA 238 DEB 3.5 21:19:19 81° ENE 21:19:19 81° ENE 21:25:43 10° NNE
USA 238 3.5 21:19:23 81° ENE 21:19:23 81° ENE 21:25:50 10° NNE
Cosmos 2219 4.1 21:23:33 39° N 21:23:33 39° N 21:27:10 10° NNE
MSX 4.2 21:17:27 10° NNE 21:22:00 58° NNE 21:22:00 58° NNE
Cosmos 2297 Rocket 2.5 21:26:40 60° NNE 21:26:40 60° NNE 21:31:15 10° NNE
Centaur AC-119 4.4 21:30:54 57° WSW 21:32:33 66° SSW 22:03:55 10° ESE
USA 234 4.1 21:31:43 10° ESE 21:37:54 47° NE 21:44:04 10° NNW
Yuri Rocket 3.7 21:38:43 52° NE 21:38:43 52° NE 21:42:43 10° E
SeaSat 1 4.2 21:39:19 10° SE 21:43:38 31° ENE 21:47:58 10° N
Meteor 1-19 Rocket 4.2 21:42:55 52° S 21:44:27 89° E 21:50:09 10° N
GPS 2-18 Rocket1 4.3 21:49:39 37° SE 21:49:39 37° SE 21:52:13 10° ESE
NOSS 3-2 (A) 3.3 21:48:53 54° NW 21:48:53 54° NW 21:54:25 10° NNE
Cosmos 2227 Rocket 2.2 21:50:49 58° WNW 21:50:49 58° WNW 21:56:12 10° N
COSMOS 2428 2.5 21:45:32 10° NNW 21:51:13 82° WSW 21:56:53 10° SSE
ATLAS 5 CENTAUR R/B 3.4 21:37:30 10° SSW 21:51:37 68° ESE 21:55:31 10° NE
BREEZE M DEB (TANK) 4.5 21:49:19 31° NW 21:52:02 85° NE 22:09:44 10° SE
STARLINK-1059 4.5 22:03:02 36° NNW 22:03:02 36° NNW 22:06:14 10° NNE
Cosmos 2219 Rocket 2.2 21:58:57 10° NNW 22:04:23 54° WSW 22:09:47 10° S
Cosmos 389 Rocket 2.4 22:05:48 80° SSE 22:05:57 85° E 22:09:33 10° N
Cosmos 1975 3.1 22:04:55 10° N 22:08:54 67° E 22:12:54 10° SSE
CZ-2C R/B 2.3 22:06:12 10° N 22:10:36 50° WNW 22:11:05 48° W
CZ-4B R/B 3.9 22:08:33 10° NNE 22:12:29 74° E 22:15:13 18° S
NOSS 3-2 (C) 3.3 22:12:44 37° WSW 22:14:45 57° WNW 22:20:34 10° NNE
Cosmos 1980 4.2 22:10:37 10° N 22:16:11 60° ENE 22:21:43 10° SSE
CENTAUR R/B 2.1 22:13:59 29° SW 22:16:53 73° WNW 22:23:04 10° NNE
Cosmos 2082 3.8 22:18:57 27° SW 22:21:56 54° WNW 22:27:30 10° N
Cosmos 1484 Rocket 2.7 22:24:28 10° NNE 22:28:16 85° E 22:32:01 10° S
STARLINK-1058 4.4 22:25:40 15° SSW 22:28:54 49° SE 22:32:53 10° NE
Cosmos 1300 Rocket 4.5 22:27:44 10° N 22:31:54 50° E 22:36:05 10° SSE
Cosmos 2333 Rocket 3.0 22:27:42 10° NW 22:32:15 26° WSW 22:36:49 10° SSW
STARLINK-1043 4.2 22:30:27 14° SSW 22:33:52 56° SE 22:37:55 10° NE
STARLINK-1065 4.1 22:32:21 14° SSW 22:35:51 60° SE 22:39:54 10° NE
Cosmos 1378 Rocket 4.3 22:33:08 10° S 22:37:18 54° E 22:41:31 10° NNE
SWIFT 3.6 22:35:32 17° SW 22:37:59 30° SSE 22:41:41 10° ESE
CZ-4B R/B 3.0 22:34:44 10° N 22:38:59 64° WNW 22:43:23 10° SSW
H-2A R/B 2.3 22:36:25 10° N 22:40:27 61° WNW 22:44:19 10° SSW
STARLINK-1063 3.7 22:40:02 12° SSW 22:43:48 75° SE 22:47:56 10° NE
GPS 2-12 Rocket1 3.2 22:42:11 21° WSW 22:45:00 59° S 22:49:27 10° ESE
Meteor 2-4 Rocket 4.3 22:40:37 10° SSW 22:46:00 38° W 22:51:27 10° NNW
Hubble Space Telescope 1.4 22:45:13 20° W 22:47:33 38° SSW 22:51:24 10° SE
STARLINK-1064 3.6 22:44:49 11° SW 22:48:47 86° SE 22:52:55 10° NE
Palapa 6 Rocket 4.2 22:47:37 13° SW 22:51:29 40° SSE 22:56:45 10° E
FENGYUN 3A 3.6 22:46:41 10° N 22:52:04 78° WNW 22:57:25 10° SSW
STARLINK-1041 3.5 22:49:37 10° SW 22:53:44 83° NW 22:57:53 10° NE
Cosmos 1092 Rocket 4.0 22:50:18 10° SSW 22:56:34 66° W 23:02:52 10° N
Meteor 1-4 Rocket 3.1 22:54:17 10° SSW 22:57:45 39° W 23:01:16 10° NNW
STARLINK-1038 3.6 22:54:35 10° SW 22:58:41 73° NW 23:02:49 10° NE
Cosmos 2237 Rocket 2.3 22:53:58 10° NNW 22:59:28 54° WSW 23:04:59 10° S
EPKM 1.1 23:00:58 12° WSW 23:03:25 84° SSE 23:05:31 10° ENE
STARLINK-1046 3.7 22:59:35 10° SW 23:03:41 63° NW 23:07:47 10° NNE
PSLV R/B 3.9 22:59:50 10° N 23:03:53 64° WNW 23:07:54 10° SSW
ATLAS 3B R/B 2.7 22:59:11 10° SW 23:05:49 59° WNW 23:12:22 10° NNE
Chandra Rocket (1) 3.4 22:56:18 11° W 23:08:17 57° NNW 23:12:13 10° ENE
STARLINK-1039 3.8 23:04:37 10° SW 23:08:39 55° NW 23:12:43 10° NNE
Cosmos 1048 Rocket 4.1 23:03:50 10° NNW 23:09:07 64° WSW 23:14:25 10° S
ASTRO E2 4.4 23:05:54 10° NW 23:09:15 26° N 23:12:36 10° ENE
METEOR-M 4.3 23:05:01 10° N 23:10:10 52° WNW 23:15:20 10° SSW
PAYLOAD B 4.4 23:04:44 10° NNE 23:10:14 79° ESE 23:15:44 10° S
Meteor 1-31 Rocket 4.5 23:08:38 10° NW 23:10:57 15° WNW 23:13:15 10° WSW
Cosmos 494 Rocket 4.5 23:06:12 10° N 23:11:26 69° ENE 23:16:40 10° SSE
Okean 1 Rocket 4.2 23:07:32 10° N 23:11:45 50° E 23:15:59 10° SSE
COSMO-SKYMED 1 2.7 23:08:51 10° SSE 23:13:10 82° ENE 23:17:30 10° N
STARLINK-1045 4.0 23:09:39 10° SW 23:13:39 48° NW 23:17:38 10° NNE
Cosmos 2263 Rocket 2.4 23:08:54 10° SSW 23:14:30 78° ESE 23:20:10 10° NNE
Cosmos 2026 Rocket 4.0 23:12:18 10° SSW 23:18:24 59° W 23:24:25 10° N
ADEOS Rocket 4.4 23:12:03 10° SSE 23:19:30 59° ENE 23:27:05 10° N
